This is the latest recevied weather packets stored in our database for station/object KE5QKR. If no packets are shown the sender has not sent any weather packets the latest 1 day(s).
| Time | Temp. | Humidity | Pressure | Rain* | Wind** | Luminosity | Snow |
|---|---|---|---|---|---|---|---|
| 1836274755 | 21.67° C | 98% | 1014.6 hPa | 0 mm | 0 m/s | 0 W/m² | - |
| 1836274453 | 21.67° C | 98% | 1014.3 hPa | 0 mm | 0 m/s | 0 W/m² | - |
| 1836274306 | 21.11° C | 98% | 1014.6 hPa | 0 mm | 0 m/s | 0 W/m² | - |
| 1836274151 | 21.11° C | 97% | 1014.3 hPa | 0 mm | 0 m/s | 0 W/m² | - |
| 1778039980 | 20° C | 99% | 1011.2 hPa | 0 mm | 0 m/s | 0 W/m² | - |
| 1778039678 | 20° C | 99% | 1011.1 hPa | 0 mm | 0 m/s | 0 W/m² | - |
| 1778039374 | 20.56° C | 99% | 1010.8 hPa | 0 mm | 0 m/s | 0 W/m² | - |
| 1778039072 | 20° C | 99% | 1011.2 hPa | 0 mm | 0 m/s | 0 W/m² | - |
| 1778038769 | 20° C | 98% | 1011.4 hPa | 0 mm | 0 m/s | 0 W/m² | - |
| 1778038466 | 20.56° C | 98% | 1011.3 hPa | 0 mm | 0 m/s | 0 W/m² | - |
| 1778038163 | 20.56° C | 98% | 1011.4 hPa | 0 mm | 0 m/s | 0 W/m² | - |
| 1778037860 | 20.56° C | 98% | 1011.3 hPa | 0 mm | 0 m/s | 0 W/m² | - |
| 1778037556 | 20.56° C | 98% | 1011.2 hPa | 0 mm | 0 m/s | 0 W/m² | - |
| 1778037254 | 20.56° C | 98% | 1011 hPa | 0 mm | 0 m/s | 0 W/m² | - |
| 1778036951 | 20.56° C | 97% | 1011.1 hPa | 0 mm | 0 m/s | 0 W/m² | - |
| 1778036649 | 20.56° C | 97% | 1011.3 hPa | 0 mm | 0 m/s | 0 W/m² | - |
| 1778036346 | 21.11° C | 97% | 1011.1 hPa | 0 mm | 0 m/s | 0 W/m² | - |
| 1778036043 | 21.11° C | 97% | 1010.9 hPa | 0 mm | 0 m/s | 0 W/m² | - |
| 1778035740 | 21.11° C | 97% | 1011.1 hPa | 0 mm | 0 m/s | 0 W/m² | - |
| 1778035437 | 21.11° C | 96% | 1011 hPa | 0 mm | 0 m/s | 0 W/m² | - |
| 1778035132 | 21.11° C | 96% | 1011 hPa | 0 mm | 0 m/s | 0 W/m² | - |
| 1778034830 | 21.11° C | 96% | 1011.2 hPa | 0 mm | 0 m/s | 0 W/m² | - |
| 1778034526 | 21.11° C | 96% | 1010.9 hPa | 0 mm | 0 m/s | 0 W/m² | - |
| 1778034224 | 21.11° C | 95% | 1011.1 hPa | 0 mm | 0 m/s | 0 W/m² | - |
| 1778033922 | 21.11° C | 95% | 1010.7 hPa | 0 mm | 0 m/s | 0 W/m² | - |
* Rain latest hour (hover to see other rain measurements)
** Current wind speed in m/s (hover to see current wind gust speed)